Weather History for Aurora, CO

Change the Weather History Date:

Monday, January 28, 2013

  Actual Average Record
Temperature  
Mean Temperature 40 °F -  
Max Temperature 53 °F 42 °F 66 °F (2011)
Min Temperature 24 °F 21 °F 1 °F (2014)
Degree Days  
Heating Degree Days 26    
Moisture  
Dew Point 25 °F    
Average Humidity 68    
Maximum Humidity 100    
Minimum Humidity 30    
Precipitation  
Precipitation 0.10 in - - ()
Sea Level Pressure  
Sea Level Pressure 29.61 in    
Wind  
Wind Speed 13 mph (ENE)    
Max Wind Speed 24 mph    
Max Gust Speed 31 mph    
Visibility 4 miles    
Events Snow    
Averages and records for this station are not official NWS values.
T = Trace of Precipitation, MM = Missing Value Source: NWS Daily Summary

Daily Weather History Graph

Daily Weather History Graph

Search for Another Location

Airport:

Trip Planner

Search our weather history database for the weather conditions in past years. The results will help you decide how hot, cold, wet, or windy it might be!

Date:

Astronomy

Jan. 28, 2013 Rise Set
Actual Time 7:10 AM MST 5:14 PM MST
Civil Twilight 6:41 AM MST 5:43 PM MST
Nautical Twilight 6:08 AM MST 6:15 PM MST
Astronomical Twilight 5:37 AM MST 6:47 PM MST
Moon 7:11 PM MST (1/28) 7:37 AM MST (1/28)
Length of Visible Light 11h 01m
Length of Day
10h 04m
Full, 97% of the Moon is Illuminated
Jan 28
Full
Feb 3
Last Quarter
Feb 10
New
Feb 17
First Quarter
Feb 25
Full

Hourly Weather History & Observations

Time (MST) Temp. Windchill Dew Point Humidity Pressure Visibility Wind Dir Wind Speed Gust Speed Precip Events Conditions
12:55 AM 41.0 °F 32.8 °F 21.2 °F 45% 29.61 in 25.0 mi SSW 16.1 mph - N/A   Clear
1:55 AM 42.8 °F 35.1 °F 17.6 °F 36% 29.58 in 25.0 mi SSW 16.1 mph - N/A   Scattered Clouds
2:55 AM 39.2 °F 33.0 °F 17.6 °F 42% 29.60 in 25.0 mi SSW 9.2 mph - N/A   Scattered Clouds
3:55 AM 35.6 °F 28.0 °F 17.6 °F 48% 29.60 in 25.0 mi South 10.4 mph - N/A   Scattered Clouds
4:55 AM 39.2 °F 33.0 °F 19.4 °F 45% 29.57 in 25.0 mi South 9.2 mph - N/A   Scattered Clouds
5:55 AM 37.4 °F 28.2 °F 21.2 °F 52% 29.59 in 25.0 mi SSW 16.1 mph - N/A   Scattered Clouds
6:55 AM 37.4 °F 28.5 °F 23.0 °F 56% 29.59 in 70.0 mi South 15.0 mph - N/A   Scattered Clouds
7:55 AM 37.4 °F 28.5 °F 21.2 °F 52% 29.58 in 70.0 mi SSE 15.0 mph - N/A   Mostly Cloudy
8:55 AM 44.6 °F 39.2 °F 23.0 °F 43% 29.55 in 70.0 mi South 10.4 mph - N/A   Mostly Cloudy
9:55 AM 50.0 °F - 23.0 °F 35% 29.51 in 70.0 mi SSW 9.2 mph - N/A   Mostly Cloudy
10:55 AM 53.6 °F - 24.8 °F 33% 29.48 in 70.0 mi SSW 18.4 mph - N/A   Partly Cloudy
11:55 AM 53.6 °F - 24.8 °F 33% 29.46 in 70.0 mi SSW 10.4 mph 18.4 mph N/A   Scattered Clouds
12:55 PM 53.6 °F - 23.0 °F 30% 29.39 in 70.0 mi NW 8.1 mph - N/A   Mostly Cloudy
1:55 PM 50.0 °F - 26.6 °F 40% 29.44 in 70.0 mi North 24.2 mph - N/A   Mostly Cloudy
2:55 PM 41.0 °F 30.9 °F 26.6 °F 57% 29.51 in 25.0 mi NNE 24.2 mph 31.1 mph N/A   Scattered Clouds
3:55 PM 37.4 °F 28.5 °F 28.4 °F 70% 29.62 in 10.0 mi NNE 15.0 mph - N/A   Mostly Cloudy
4:02 PM 35.6 °F 26.6 °F 26.6 °F 70% 29.65 in 7.0 mi North 13.8 mph - N/A Snow Light Snow Grains
4:35 PM 32.0 °F 24.8 °F 32.0 °F 100% 29.67 in 1.5 mi North 8.1 mph - N/A Snow Light Snow
4:55 PM 32.0 °F 21.2 °F 32.0 °F 100% 29.65 in 1.5 mi NE 16.1 mph - N/A Snow Light Snow
5:38 PM 30.2 °F 20.8 °F 30.2 °F 100% 29.69 in 1.5 mi ENE 11.5 mph - N/A Snow Light Snow
5:55 PM 28.4 °F 18.0 °F 28.4 °F 100% 29.69 in 0.8 mi NE 12.7 mph - N/A Snow Light Snow
6:39 PM 28.4 °F 23.3 °F 28.4 °F 100% 29.72 in 2.0 mi NNE 4.6 mph - N/A Snow Light Snow
6:55 PM 28.4 °F 22.2 °F 28.4 °F 100% 29.73 in 2.0 mi NNE 5.8 mph - N/A Snow Light Snow
7:23 PM 28.4 °F 21.2 °F 26.6 °F 93% 29.71 in 2.0 mi NE 6.9 mph - N/A Snow Light Snow
7:55 PM 26.6 °F 21.2 °F 26.6 °F 100% 29.74 in 5.0 mi NE 4.6 mph - N/A Snow Light Snow
8:55 PM 26.6 °F 21.2 °F 26.6 °F 100% 29.71 in 7.0 mi NE 4.6 mph - N/A Snow Light Snow
9:55 PM 26.6 °F 21.2 °F 26.6 °F 100% 29.68 in 7.0 mi North 4.6 mph - N/A Snow Light Snow
10:55 PM 26.6 °F 14.7 °F 24.8 °F 93% 29.68 in 7.0 mi ENE 15.0 mph - N/A Snow Light Snow
11:55 PM 24.8 °F 14.0 °F 23.0 °F 93% 29.68 in 7.0 mi ENE 11.5 mph - N/A Snow Light Snow